This is the latest recevied weather packets stored in our database for station/object N4WFF. If no packets are shown the sender has not sent any weather packets the latest 10 day(s).
| Time | Temp. | Humidity | Pressure | Rain* | Wind** | Luminosity | Snow |
|---|---|---|---|---|---|---|---|
| 1777998356 | 23.33° C | 64% | 1016 hPa | 0 mm | - | 854 W/m² | - |
| 1777998056 | 23.33° C | 64% | 1016.1 hPa | 0 mm | - | 767 W/m² | - |
| 1777997756 | 23.33° C | 63% | 1016.2 hPa | 0 mm | - | 877 W/m² | - |
| 1777997457 | 22.78° C | 64% | 1016.3 hPa | 0 mm | - | 882 W/m² | - |
| 1777997155 | 22.78° C | 64% | 1016.2 hPa | 0 mm | - | 777 W/m² | - |
| 1777996855 | 22.78° C | 64% | 1016.3 hPa | 0 mm | - | 824 W/m² | - |
| 1777996556 | 22.78° C | 64% | 1016.2 hPa | 0 mm | - | 828 W/m² | - |
| 1777996256 | 22.78° C | 64% | 1016.2 hPa | 0 mm | - | 785 W/m² | - |
| 1777995958 | 22.78° C | 63% | 1016.3 hPa | 0 mm | - | 800 W/m² | - |
| 1777995656 | 22.22° C | 64% | 1016.4 hPa | 0 mm | - | 778 W/m² | - |
| 1777995356 | 21.67° C | 65% | 1016.5 hPa | 0 mm | - | 764 W/m² | - |
| 1777995056 | 21.67° C | 64% | 1016.5 hPa | 0 mm | - | 512 W/m² | - |
| 1777994755 | 21.67° C | 64% | 1016.5 hPa | 0 mm | - | 783 W/m² | - |
| 1777994455 | 21.67° C | 64% | 1016.6 hPa | 0 mm | - | 440 W/m² | - |
| 1777994157 | 21.67° C | 65% | 1016.6 hPa | 0 mm | - | 758 W/m² | - |
| 1777993858 | 21.67° C | 65% | 1016.7 hPa | 0 mm | - | 684 W/m² | - |
| 1777993556 | 21.67° C | 65% | 1016.6 hPa | 0 mm | - | 687 W/m² | - |
| 1777993256 | 21.67° C | 64% | 1016.7 hPa | 0 mm | - | 681 W/m² | - |
| 1777992956 | 21.11° C | 65% | 1016.7 hPa | 0 mm | - | 693 W/m² | - |
| 1777992656 | 20.56° C | 66% | 1016.6 hPa | 0 mm | - | 615 W/m² | - |
| 1777992355 | 20.56° C | 67% | 1016.7 hPa | 0 mm | - | 533 W/m² | - |
| 1777992056 | 20.56° C | 67% | 1016.8 hPa | 0 mm | - | 542 W/m² | - |
| 1777991756 | 20.56° C | 67% | 1016.7 hPa | 0 mm | - | 547 W/m² | - |
| 1777991456 | 20° C | 69% | 1016.7 hPa | 0 mm | - | 603 W/m² | - |
| 1777991156 | 20.56° C | 67% | 1016.7 hPa | 0 mm | - | 354 W/m² | - |
* Rain latest hour (hover to see other rain measurements)
** Current wind speed in m/s (hover to see current wind gust speed)